(218012) = 2001 XD227 = 2005 TP96

Discovered at Socorro on 2001-12-15 by LINEAR.

Orbit

Orbit type: Main Belt

Note: WebGL enabled browser required.

epoch2024-03-31.0
epoch JD2460400.5
perihelion date2022-11-08.05204
perihelion JD2459891.55204
argument of perihelion (°)48.64262
ascending node (°)336.04190
inclination (°)1.92324
eccentricity0.0902943
perihelion distance (AU)2.3969175
Tisserand w.r.t. Jupiter3.4
ΔV w.r.t. Earth (km/sec)9.7
semimajor axis (AU)2.6348274
mean anomaly (°)117.28675
mean daily motion (°/day)0.23044940
aphelion distance (AU)2.873
period (years)4.28
P-vector [x]0.90844939
P-vector [y]0.37278549
P-vector [z]0.18907851
Q-vector [x]-0.41777265
Q-vector [y]0.82451068
Q-vector [z]0.38163877
absolute magnitude16.7
phase slope0.15
uncertainty0
referenceMPEC 2024-E73
observations used365
oppositions14
arc length (days)8116
first opposition used2001
last opposition used2024
residual rms (arc-secs)0.75
perturbers coarse indicatorM-v
perturbers precise indicator003Ek
first observation date used2001-12-15.0
last observation date used2024-03-05.0
computer nameMPCLINUX
JD of orbit computation2456552.251915
perihelion JD uncertainty (days)2.6132E-04
argument of perihelion uncertainty (°)1.7814E-04
ascending node uncertainty (°)1.7020E-04
inclination uncertainty (°)7.2070E-06
eccentricity uncertainty 1.2172E-07
perihelion distance uncertainty (AU)3.5976E-07
Minimum Orbit Intersection Distances (in AU)
for orbit epoch: 2460400.5, reference: E2024-GB3
Mercury2.05639
Venus1.67482
Earth1.40098
Mars0.93575
Jupiter2.52516
Saturn6.46476
Uranus15.6144
Neptune27.4259

Observations

368 total observations over interval: 2001 12 15.22783 – 2024 03 05.175615
These data are available for download (format description).

Date (UT) J2000 RA J2000 Dec Magn Location Ref
2001 12 15.22783 04 21 47.79 +24 42 05.6 20.0   704 – Lincoln Laboratory ETS, New Mexico MPS 45401
2001 12 15.24294 04 21 46.97 +24 42 03.4 20.2   704 – Lincoln Laboratory ETS, New Mexico MPS 45401
2001 12 15.27314 04 21 45.21 +24 41 58.1 20.1   704 – Lincoln Laboratory ETS, New Mexico MPS 45401
2001 12 18.22708 04 19 09.91 +24 34 02.1 20.2   704 – Lincoln Laboratory ETS, New Mexico MPS 45401
2001 12 18.24222 04 19 09.14 +24 34 00.0 20.6   704 – Lincoln Laboratory ETS, New Mexico MPS 45401
2001 12 18.25737 04 19 08.37 +24 33 56.2 20.2   704 – Lincoln Laboratory ETS, New Mexico MPS 45401
2001 12 18.27273 04 19 07.64 +24 33 54.6 20.5   704 – Lincoln Laboratory ETS, New Mexico MPS 45401
2001 12 18.28787 04 19 06.78 +24 33 51.5 20.8   704 – Lincoln Laboratory ETS, New Mexico MPS 45401
2001 12 19.22348 04 18 20.08 +24 31 20.6 19.7   704 – Lincoln Laboratory ETS, New Mexico MPS 47023
2001 12 19.25375 04 18 18.47 +24 31 16.4 20.1   704 – Lincoln Laboratory ETS, New Mexico MPS 47023
2001 12 19.26889 04 18 17.77 +24 31 13.9 20.0   704 – Lincoln Laboratory ETS, New Mexico MPS 47023
2001 12 19.28403 04 18 16.78 +24 31 10.3 20.9   704 – Lincoln Laboratory ETS, New Mexico MPS 47023
2001 12 20.19974 04 17 32.59 +24 28 44.4 20.5   644 – Palomar Mountain/NEAT MPS 47023
2001 12 20.26305 04 17 29.43 +24 28 34.6 19.9   644 – Palomar Mountain/NEAT MPS 47023
2001 12 20.32637 04 17 26.27 +24 28 24.2 20.8   644 – Palomar Mountain/NEAT MPS 47023
2003 04 01.26889 11 36 50.60 +01 12 55.9 20.0 R 695 – Kitt Peak MPS 178297
2003 04 01.35394 11 36 46.52 +01 13 19.2   695 – Kitt Peak MPS 178297
2005 10 06.32082 02 15 59.83 +16 15 37.9 19.8 V 703 – Catalina Sky Survey MPS 155238
2005 10 06.32650 02 15 59.50 +16 15 37.7 19.5 V 703 – Catalina Sky Survey MPS 155238
2005 10 06.33213 02 15 59.36 +16 15 35.8 19.3 V 703 – Catalina Sky Survey MPS 155238
2005 10 06.33776 02 15 59.00 +16 15 35.6 19.5 V 703 – Catalina Sky Survey MPS 155238
2005 10 06.34017 02 15 58.96 +16 15 34.4 19.4 V G96 – Mt. Lemmon Survey MPS 147696
2005 10 06.34531 02 15 58.71 +16 15 33.8 19.4 V G96 – Mt. Lemmon Survey MPS 147696
2005 10 06.35044 02 15 58.50 +16 15 32.9 19.6 V G96 – Mt. Lemmon Survey MPS 147696
2005 10 06.35554 02 15 58.24 +16 15 32.4 19.4 V G96 – Mt. Lemmon Survey MPS 147696
2005 10 09.40412 02 13 42.79 +16 07 30.1 19.7 V 691 – Steward Observatory, Kitt Peak-Spacewatch MPS 147696
2005 10 09.42150 02 13 41.93 +16 07 27.4 19.9 V 691 – Steward Observatory, Kitt Peak-Spacewatch MPS 147696
2005 10 09.44223 02 13 40.96 +16 07 23.5 20.0 V 691 – Steward Observatory, Kitt Peak-Spacewatch MPS 147696
2005 10 13.37089 02 10 31.76 +15 55 16.3 19.9 V 691 – Steward Observatory, Kitt Peak-Spacewatch MPS 151958
2005 10 13.38826 02 10 30.85 +15 55 13.0 19.9 V 691 – Steward Observatory, Kitt Peak-Spacewatch MPS 151958
2005 10 13.40561 02 10 29.95 +15 55 09.3 20.3 V 691 – Steward Observatory, Kitt Peak-Spacewatch MPS 151958
2005 10 22.31422 02 02 39.01 +15 21 37.2 18.6 V 703 – Catalina Sky Survey MPS 147696
2005 10 22.32371 02 02 38.50 +15 21 34.7 19.6 V 703 – Catalina Sky Survey MPS 147696
2005 10 22.33318 02 02 37.89 +15 21 31.6 19.3 V 703 – Catalina Sky Survey MPS 147696
2005 10 22.34265 02 02 37.42 +15 21 31.3 18.3 V 703 – Catalina Sky Survey MPS 147696
2005 10 25.21516 01 59 59.69 +15 09 20.1 19.1 R 699 – Lowell Observatory-LONEOS MPS 147696
2005 10 25.23805 01 59 58.40 +15 09 15.2   699 – Lowell Observatory-LONEOS MPS 147696
2005 10 25.26094 01 59 57.08 +15 09 06.7   699 – Lowell Observatory-LONEOS MPS 147696
2005 10 25.28383 01 59 55.83 +15 09 02.3   699 – Lowell Observatory-LONEOS MPS 147697
2005 10 27.26763 01 58 06.70 +15 00 21.7 19.3 V G96 – Mt. Lemmon Survey MPS 151958
2005 10 27.27535 01 58 06.27 +15 00 19.8 19.4 V G96 – Mt. Lemmon Survey MPS 151958
2005 10 27.28304 01 58 05.84 +15 00 17.8 19.2 V G96 – Mt. Lemmon Survey MPS 151958
2005 10 27.29083 01 58 05.37 +15 00 15.6 19.2 V G96 – Mt. Lemmon Survey MPS 151958
2005 10 28.30591 01 57 09.75 +14 55 46.2 18.7 V G96 – Mt. Lemmon Survey MPS 147386
2005 10 28.31266 01 57 09.36 +14 55 44.5 18.6 V G96 – Mt. Lemmon Survey MPS 147386
2005 10 28.31949 01 57 08.96 +14 55 42.6 18.5 V G96 – Mt. Lemmon Survey MPS 147386
2005 10 28.32639 01 57 08.56 +14 55 40.8 18.3 V G96 – Mt. Lemmon Survey MPS 147386
2005 11 04.27041 01 50 59.81 +14 24 31.3 19.7   704 – Lincoln Laboratory ETS, New Mexico MPS 149388
2005 11 04.29521 01 50 58.49 +14 24 24.9 19.6   704 – Lincoln Laboratory ETS, New Mexico MPS 149388
2005 11 04.30782 01 50 57.79 +14 24 22.1 19.7   704 – Lincoln Laboratory ETS, New Mexico MPS 149388
2005 11 04.32068 01 50 57.17 +14 24 17.6 20.0   704 – Lincoln Laboratory ETS, New Mexico MPS 149388
2005 11 28.18630 01 36 30.76 +12 58 15.6   701 – Junk Bond Observatory, Sierra Vista MPS 151958
2005 11 28.22417 01 36 30.00 +12 58 10.4   701 – Junk Bond Observatory, Sierra Vista MPS 151958
2005 11 28.25245 01 36 29.41 +12 58 07.2   701 – Junk Bond Observatory, Sierra Vista MPS 151958
2007 02 07.40790 10 26 38.90 +10 09 25.5 20.1 V G96 – Mt. Lemmon Survey MPS 198641
2007 02 07.41671 10 26 38.43 +10 09 28.0 20.3 V G96 – Mt. Lemmon Survey MPS 198641
2007 02 07.42552 10 26 38.00 +10 09 29.7 20.4 V G96 – Mt. Lemmon Survey MPS 198641
2007 02 07.43433 10 26 37.50 +10 09 32.1 20.4 V G96 – Mt. Lemmon Survey MPS 198641
2007 02 22.16000 10 13 30.76 +11 14 15.5   691 – Steward Observatory, Kitt Peak-Spacewatch MPS 200297
2007 02 22.17769 10 13 29.76 +11 14 20.5   691 – Steward Observatory, Kitt Peak-Spacewatch MPS 200297
2007 02 22.19539 10 13 28.78 +11 14 25.3   691 – Steward Observatory, Kitt Peak-Spacewatch MPS 200297
2007 03 09.32035 10 00 23.54 +12 15 37.4 20.9 V G96 – Mt. Lemmon Survey MPS 202302
2007 03 09.32575 10 00 23.29 +12 15 38.3 20.5 V G96 – Mt. Lemmon Survey MPS 202302
2007 03 09.33119 10 00 22.96 +12 15 39.7 20.6 V G96 – Mt. Lemmon Survey MPS 202302
2007 03 09.33669 10 00 22.78 +12 15 40.7 20.5 V G96 – Mt. Lemmon Survey MPS 202302
2007 03 20.21647 09 53 02.07 +12 47 33.3 20.2 V G96 – Mt. Lemmon Survey MPS 204511
2007 03 20.22326 09 53 01.82 +12 47 34.4 21.0 V G96 – Mt. Lemmon Survey MPS 204511
2007 03 20.23005 09 53 01.64 +12 47 35.1 20.9 V G96 – Mt. Lemmon Survey MPS 204511
2007 03 20.23693 09 53 01.35 +12 47 36.1 20.6 V G96 – Mt. Lemmon Survey MPS 204511
2009 08 15.39300 23 59 27.02 +00 28 08.0 20.5 V 691 – Steward Observatory, Kitt Peak-Spacewatch MPS 291675
2009 08 15.41059 23 59 26.64 +00 28 07.1 20.1 V 691 – Steward Observatory, Kitt Peak-Spacewatch MPS 291675
2009 08 15.42819 23 59 26.22 +00 28 05.5 20.2 V 691 – Steward Observatory, Kitt Peak-Spacewatch MPS 291675
2009 08 27.33448 23 53 30.75 +00 02 30.6 19.9 V 691 – Steward Observatory, Kitt Peak-Spacewatch MPS 292573
2009 08 27.35210 23 53 30.04 +00 02 27.3 20.0 V 691 – Steward Observatory, Kitt Peak-Spacewatch MPS 292573
2009 08 27.36970 23 53 29.35 +00 02 24.2 20.0 V 691 – Steward Observatory, Kitt Peak-Spacewatch MPS 292573
2009 08 30.08557 23 51 42.06 -00 06 13.9 20.1 V J75 – OAM Observatory, La Sagra MPS 294898
2009 08 30.09794 23 51 41.54 -00 06 17.0 19.4 V J75 – OAM Observatory, La Sagra MPS 294898
2009 08 30.11028 23 51 41.03 -00 06 18.6 19.9 V J75 – OAM Observatory, La Sagra MPS 294898
2009 08 31.97929 23 50 22.54 -00 12 46.8 19.8 R 113 – Volkssternwarte Drebach, Schoenbrunn MPS 293161
2009 08 31.99770 23 50 21.76 -00 12 50.5 19.9 R 113 – Volkssternwarte Drebach, Schoenbrunn MPS 293161
2009 09 10.31576 23 43 04.51 -00 50 04.9 19.4 V 703 – Catalina Sky Survey MPS 294898
2009 09 10.32157 23 43 04.26 -00 50 07.0 18.9 V 703 – Catalina Sky Survey MPS 294898
2009 09 10.32747 23 43 03.86 -00 50 07.1 19.6 V 703 – Catalina Sky Survey MPS 294898
2009 09 10.33339 23 43 03.68 -00 50 08.7 20.6 V 703 – Catalina Sky Survey MPS 294898
2009 09 14.24872 23 39 44.96 -01 07 37.5 19.1   704 – Lincoln Laboratory ETS, New Mexico MPS 295693
2009 09 14.26042 23 39 44.32 -01 07 40.3 19.7   704 – Lincoln Laboratory ETS, New Mexico MPS 295693
2009 09 14.27215 23 39 43.72 -01 07 43.3 19.2   704 – Lincoln Laboratory ETS, New Mexico MPS 295693
2009 09 14.28386 23 39 43.09 -01 07 46.8 19.8   704 – Lincoln Laboratory ETS, New Mexico MPS 295693
